Regional Weather Roundup
Issued by NWS

Home | Current Version | Previous Version | Text Only | Print | Product List | Glossary Off
Versions: 1 2 3 4 5 6 7 8 9 10 11 12 13 14 15 16 17 18 19 20 21 22 23 24 25 26 27 28 29 30 31 32 33 34 35 36 37 38 39 40 41 42 43 44 45 46 47 48 49 50

000
ASUS43 KOAX 281810
RWRNE

WEATHER ROUNDUP FOR NEBRASKA
NATIONAL WEATHER SERVICE OMAHA NE
100 PM CDT WED SEP 28 2016

NOTES: SATELLITE DATA IS BEING USED TO AUGMENT CLOUD COVER ABOVE
       12000 FEET.
       "FAIR" INDICATES FEW OR NO CLOUDS BELOW 12,000 FEET WITH NO
       SIGNIFICANT WEATHER AND/OR OBSTRUCTIONS TO VISIBILITY.

  * THESE STATIONS DO NOT REPORT WEATHER SUCH AS RAIN...SNOW OR FOG.

NEZ001>004-019>022-054>056-281900-
NEBRASKA PANHANDLE

CITY           SKY/WX    TMP DP  RH WIND       PRES   REMARKS
SCOTTSBLUFF    SUNNY     76  45  33 SE8       30.30F
6HR MIN TEMP:  45; 6HR MAX TEMP:  76;

ALLIANCE       SUNNY     78  41  26 VRB5      30.28S
6HR MIN TEMP:  39; 6HR MAX TEMP:  78;

CHADRON        SUNNY     77  41  27 VRB3      30.26F
6HR MIN TEMP:  41; 6HR MAX TEMP:  77;

KIMBALL        SUNNY     73  42  31 N6        30.34S
SIDNEY         SUNNY     77  41  27 NE13      30.31F
6HR MIN TEMP:  42; 6HR MAX TEMP:  77;

$$

NEZ057>060-069>072-079>082-281900-
SOUTHWEST NEBRASKA

CITY           SKY/WX    TMP DP  RH WIND       PRES   REMARKS
NORTH PLATTE   SUNNY     77  43  29 N10       30.24S
6HR MIN TEMP:  39; 6HR MAX TEMP:  77;

IMPERIAL       SUNNY     78  41  26 N10       30.25F
6HR MIN TEMP:  46; 6HR MAX TEMP:  78;

LEXINGTON      SUNNY     72  39  29 NE10      30.23F
MCCOOK         SUNNY     75  44  33 CALM      30.23F
6HR MIN TEMP:  43; 6HR MAX TEMP:  75;

OGALLALA       SUNNY    N/A N/A N/A N9G16     30.26S
$$

NEZ005>010-023>029-035>040-094-281900-
NORTH CENTRAL NEBRASKA

CITY           SKY/WX    TMP DP  RH WIND       PRES   REMARKS
VALENTINE      SUNNY     70  39  32 E8        30.26S
6HR MIN TEMP:  36; 6HR MAX TEMP:  70;

AINSWORTH      SUNNY     66  38  35 NE7       30.27S
BROKEN BOW     SUNNY     71  35  26 N10G17    30.24S
6HR MIN TEMP:  42; 6HR MAX TEMP:  71;

O`NEILL        SUNNY     62  44  51 N7        30.26S
ORD            SUNNY     68  28  22 N12G21    30.23S
6HR MIN TEMP:  43; 6HR MAX TEMP:  69; 6HR PCP: TRACE;

THEDFORD       SUNNY     73  45  36 N7        30.26F
$$

NEZ041-046>049-061>064-073>077-083>087-281900-
SOUTH CENTRAL NEBRASKA

CITY           SKY/WX    TMP DP  RH WIND       PRES   REMARKS
GRAND ISLAND   SUNNY     67  43  41 N14G22    30.22F
6HR MIN TEMP:  45; 6HR MAX TEMP:  67;

AURORA         SUNNY     64  44  49 N12G18    30.22S
HASTINGS       SUNNY     67  37  33 N15       30.23S
6HR MIN TEMP:  48; 6HR MAX TEMP:  68;

HEBRON         SUNNY     66  44  44 N15       30.19S
HOLDREGE       SUNNY     71  34  26 NE9G18    30.22S
KEARNEY *      SUNNY     70  34  26 N14G21    30.22F
YORK           SUNNY     63  46  55 N13G18    30.22S
$$

NEZ011>018-030>034-042>045-281900-
NORTHEAST NEBRASKA

CITY           SKY/WX    TMP DP  RH WIND       PRES   REMARKS
NORFOLK        SUNNY     62  43  49 N9        30.23R
6HR MIN TEMP:  41; 6HR MAX TEMP:  62;

ALBION         SUNNY     62  44  51 N12       30.24S
BLAIR          SUNNY     60  47  62 N17       30.19S
FREMONT        SUNNY     61  44  53 N7        30.21S
TEKAMAH        SUNNY     60  45  57 N10       30.21S
6HR MIN TEMP:  44; 6HR MAX TEMP:  61;

WAYNE          SUNNY     61  47  61 N8        30.24S
$$

NEZ050>053-065>068-078-088>093-281900-
SOUTHEAST NEBRASKA

CITY           SKY/WX    TMP DP  RH WIND       PRES   REMARKS
LINCOLN        SUNNY     65  45  48 N13G20    30.21S
6HR MIN TEMP:  45; 6HR MAX TEMP:  65;

OMAHA EPPLEY   MOSUNNY   61  45  55 N17G23    30.20R
6HR MIN TEMP:  46; 6HR MAX TEMP:  61; 6HR PCP: TRACE;

BEATRICE       SUNNY     65  46  50 NE12G17   30.18S
FALLS CITY     SUNNY     64  48  56 N13G22    30.15R
6HR MIN TEMP:  50; 6HR MAX TEMP:  64;

NEBRASKA CITY  SUNNY     62  40  45 N10G21    30.18R
PLATTSMOUTH    SUNNY     62  43  50 N9        30.18S
$$

NEZ044-045-051>053-067-281900-
OMAHA AREA

CITY           SKY/WX    TMP DP  RH WIND       PRES   REMARKS
OMAHA EPPLEY   MOSUNNY   61  45  55 N17G23    30.20R
6HR MIN TEMP:  46; 6HR MAX TEMP:  61; 6HR PCP: TRACE;

BLAIR          SUNNY     60  47  62 N17       30.19S
FREMONT        SUNNY     61  44  53 N7        30.21S
MILLARD        SUNNY     62  47  58 N5        30.19S
OFFUTT AFB     SUNNY     61  47  61 N12       30.19R
PLATTSMOUTH    SUNNY     62  43  50 N9        30.18S
WAHOO          FAIR      63  44  49 N10G17    30.21R
$$




USA.gov is the U.S. government's official web portal to all federal, state and local government web resources and services.